Volver al catálogo

STARLINK-5682

ActivoComunicacionesVLEO
NORAD 55457·PAYLOAD·🇺🇸 United States

Lanzado Feb 2, 2023 desde Cape Canaveral Space Force Station

Loading…

Próximos Pases (próximas 24 horas)

TLE

ActualizadoSource: CelesTrak SupGP

Época: Sep 15, 2026, 02:37 UTC

1 55457C 23015J   26258.10951389  .00030085  00000+0  10897-2 0  2586
2 55457  43.0010 338.8597 0001461 264.3171  66.3118 15.27563529    16

Sigue STARLINK-5682 en tiempo real con AllMySat

Download on the App Store